This is the latest recevied weather packets stored in our database for station/object G7GQA-4. If no packets are shown the sender has not sent any weather packets the latest 10 day(s).
| Time | Temp. | Humidity | Pressure | Rain* | Wind** | Luminosity | Snow |
|---|---|---|---|---|---|---|---|
| 1778004025 | 13.33° C | 62% | - | 0 mm | - | 59 W/m² | - |
| 1778003425 | 13.33° C | 62% | - | 0 mm | - | 65 W/m² | - |
| 1778002825 | 13.33° C | 63% | - | 0 mm | - | 69 W/m² | - |
| 1778002225 | 13.33° C | 62% | - | 0 mm | - | 83 W/m² | - |
| 1778001626 | 13.33° C | 61% | - | 0 mm | - | 98 W/m² | - |
| 1778001026 | 13.33° C | 63% | - | 0 mm | - | 90 W/m² | - |
| 1778000425 | 13.89° C | 61% | - | 0 mm | - | 110 W/m² | - |
| 1777999825 | 13.89° C | 59% | - | 0 mm | - | 114 W/m² | - |
| 1777999225 | 13.89° C | 58% | - | 0 mm | - | 145 W/m² | - |
| 1777998625 | 13.89° C | 58% | - | 0 mm | - | 165 W/m² | - |
| 1777998025 | 13.89° C | 57% | - | 0 mm | - | 150 W/m² | - |
| 1777997426 | 13.89° C | 57% | - | 0 mm | - | 157 W/m² | - |
| 1777996825 | 13.89° C | 56% | - | 0 mm | - | 189 W/m² | - |
| 1777996224 | 13.89° C | 56% | - | 0 mm | - | 258 W/m² | - |
| 1777995624 | 14.44° C | 57% | - | 0 mm | - | 239 W/m² | - |
| 1777995024 | 14.44° C | 56% | - | 0 mm | - | 298 W/m² | - |
| 1777994424 | 14.44° C | 56% | - | 0 mm | - | 344 W/m² | - |
| 1777993824 | 14.44° C | 57% | - | 0 mm | - | 367 W/m² | - |
| 1777993224 | 15° C | 54% | - | 0 mm | - | 431 W/m² | - |
| 1777992623 | 15° C | 53% | - | 0 mm | - | 549 W/m² | - |
| 1777992024 | 14.44° C | 54% | - | 0 mm | - | 461 W/m² | - |
| 1777991423 | 15° C | 54% | - | 0 mm | - | 525 W/m² | - |
| 1777990824 | 14.44° C | 55% | - | 0 mm | - | 364 W/m² | - |
| 1777989623 | 14.44° C | 57% | - | 0 mm | - | 352 W/m² | - |
| 1777989023 | 13.89° C | 56% | - | 0 mm | - | 229 W/m² | - |
* Rain latest hour (hover to see other rain measurements)
** Current wind speed in m/s (hover to see current wind gust speed)